Flag for Japan Weather past 2 weeks in Himeji, Japan

Now
79 °F

Partly cloudy.


Feels Like: 83 °F
Forecast: 74 / 90 °F
Wind: 2 mph from South

Location: Kansai International Airport

Current Time: Jul 29, 2015 at 5:01:23 AM

Latest Report: Jul 29, 2015 at 4:30 AM


Visibility: N/A

Pressure: 29.74 "Hg

Humidity: 100%

Dew point: 79 °F

Location of HimejiLocation

Historic Weather in Himeji — Graph

°F

Himeji temperature yesterday

Maximum temperature yesterday: 90 °F (at 3:30 PM)
Minimum temperature yesterday: 77 °F (at 2:00 AM)
Average temperature yesterday: 82 °F

Past Weeks' High & Low Weather Summary

 TemperatureHumidityPressure
High93 °F (Jul 15, 2:50 PM)100% (Jul 17, 6:30 AM)29.98 "Hg (Jul 17, 6:30 AM)
Low72 °F (Jul 18, 3:00 AM)49% (Jul 15, 1:00 PM)29.24 "Hg (Jul 16, 9:00 PM)
Average80 °F83%29.78 "Hg
* Reported Jul 14 4:00 AM — Jul 29 4:00 AM, Himeji, Weather by CustomWeather, © 2015

Note: Actual official high and low records may vary slightly from our data, if they occured in-between our weather recording intervals... More about our weather records

Advertising

Himeji weather history for previous 24 hours

 ConditionsComfort  
Time TempWeatherWind HumidityBarometerVisibility
4:00 AM
Wed, Jul 29
79 °FPartly cloudy.3 mph100%29.74 "HgN/A
3:00 AM81 °FPartly cloudy.5 mph89%29.74 "HgN/A
2:30 AM81 °FPartly cloudy.3 mph89%29.74 "HgN/A
2:00 AM81 °FPassing clouds.3 mph89%29.74 "HgN/A
1:30 AM79 °FScattered showers. Passing clouds.2 mph100%29.74 "HgN/A
1:00 AM79 °FScattered showers. Partly cloudy.6 mph100%29.74 "HgN/A
12:30 AM79 °FPartly cloudy.8 mph100%29.74 "HgN/A
12:00 AM81 °FPartly cloudy.7 mph94%29.74 "HgN/A
11:30 PM
Tue, Jul 28
81 °FPassing clouds.6 mph94%29.77 "HgN/A
11:00 PM81 °FPassing clouds.3 mph89%29.77 "HgN/A
10:30 PM81 °FPassing clouds.2 mph89%29.77 "HgN/A
10:00 PM82 °FPassing clouds.2 mph84%29.77 "HgN/A
9:30 PM81 °FPassing clouds.1 mph89%29.77 "HgN/A
9:00 PM84 °FPassing clouds.3 mph74%29.77 "HgN/A
8:30 PM82 °FPassing clouds.2 mph79%29.77 "HgN/A
8:00 PM81 °FPassing clouds.2 mph89%29.74 "HgN/A
7:30 PM82 °FPassing clouds.5 mph84%29.74 "HgN/A
7:00 PM82 °FBroken clouds.7 mph84%29.74 "HgN/A
6:30 PM82 °FBroken clouds.6 mph84%29.74 "HgN/A
6:00 PM84 °FBroken clouds.8 mph74%29.74 "HgN/A
5:30 PM86 °FBroken clouds.9 mph75%29.74 "HgN/A
5:00 PM86 °FBroken clouds.8 mph70%29.74 "HgN/A
4:30 PM90 °FScattered clouds.8 mph63%29.74 "HgN/A
4:00 PM88 °FPassing clouds.6 mph66%29.74 "HgN/A
3:30 PM90 °FScattered clouds.8 mph63%29.74 "HgN/A
3:00 PM86 °FScattered clouds.5 mph75%29.74 "HgN/A
2:30 PM84 °FBroken clouds.6 mph84%29.74 "HgN/A
2:00 PM84 °FBroken clouds.6 mph79%29.74 "HgN/A
1:30 PM88 °FScattered clouds.6 mph70%29.74 "HgN/A
1:00 PM86 °FScattered clouds.6 mph79%29.77 "HgN/A
12:30 PM84 °FPartly sunny.5 mph79%29.77 "HgN/A
12:00 PM84 °FScattered clouds.7 mph84%29.77 "HgN/A
11:30 AM84 °FPassing clouds.8 mph79%29.77 "HgN/A
11:00 AM84 °FPartly sunny.7 mph79%29.77 "HgN/A
10:30 AM82 °FScattered clouds.7 mph84%29.77 "HgN/A
10:00 AM82 °FBroken clouds.3 mph84%29.80 "HgN/A
9:30 AM82 °FPartly sunny.6 mph84%29.80 "HgN/A
9:00 AM82 °FPassing clouds.5 mph89%29.80 "HgN/A
8:30 AM81 °FPassing clouds.5 mph89%29.80 "HgN/A
8:00 AM81 °FPassing clouds.3 mph89%29.80 "HgN/A
7:30 AM81 °FScattered clouds.3 mph94%29.77 "HgN/A
7:00 AM79 °FPartly sunny.2 mph100%29.80 "HgN/A
6:30 AM79 °FPartly sunny.1 mph94%29.80 "HgN/A
6:00 AM79 °FPartly sunny.2 mph94%29.77 "HgN/A
5:30 AM77 °FPassing clouds.3 mph100%29.77 "HgN/A
5:00 AM77 °FPartly cloudy.5 mph100%29.77 "HgN/A
Weather by CustomWeather, © 2015

See weather overviewHow to use our weather pages